When you browse on this site, cookies collect data to enhance your experience and personalize the content and advertising you see.
Visit our Privacy Policy to learn more. By continuing to use the site, you agree to this use of cookies and data.
  • In Schweiz
  • Länderverzeichnis
  • Für 7 Tage
  • Wassertemperatur
  • Wetterkarte
  • Widgets
  • user-avatar
    Anmelden

    Stündliche Wetter Martos

    Heute, 25 Januar, Samstag

    Zeit Temperatur Niederschläge Wind Luftdruck Luftfeuchtigkeit
    00:00 +7°C° 0.2 mm 3 m/S 702 mmHg 81%
    01:00 +7°C° 0 mm 2 m/S 701 mmHg 81%
    02:00 +7°C° 0 mm 2 m/S 701 mmHg 81%
    03:00 +6°C° 0 mm 2 m/S 701 mmHg 81%
    04:00 +6°C° 0.1 mm 2 m/S 701 mmHg 82%
    05:00 +6°C° 0.1 mm 2 m/S 701 mmHg 82%
    06:00 +7°C° 0 mm 2 m/S 700 mmHg 84%
    07:00 +7°C° 1.5 mm 2 m/S 701 mmHg 86%
    08:00 +7°C° 1.5 mm 2 m/S 701 mmHg 87%
    09:00 +7°C° 1.5 mm 2 m/S 701 mmHg 89%
    10:00 +7°C° 1.1 mm 2 m/S 701 mmHg 87%
    11:00 +8°C° 1.1 mm 2 m/S 701 mmHg 86%
    12:00 +8°C° 1.1 mm 2 m/S 701 mmHg 84%
    13:00 +8°C° 1.3 mm 2 m/S 700 mmHg 87%
    14:00 +8°C° 1.3 mm 1 m/S 700 mmHg 89%
    15:00 +8°C° 1.3 mm 1 m/S 699 mmHg 92%
    16:00 +8°C° 2.1 mm 1 m/S 700 mmHg 92%
    17:00 +8°C° 2.1 mm 1 m/S 700 mmHg 92%
    18:00 +8°C° 2.1 mm 1 m/S 700 mmHg 92%
    19:00 +8°C° 0.1 mm 1 m/S 701 mmHg 92%
    20:00 +8°C° 0.1 mm 1 m/S 701 mmHg 91%
    21:00 +8°C° 0.1 mm 1 m/S 701 mmHg 90%
    22:00 +8°C° 0.2 mm 1 m/S 701 mmHg 91%
    23:00 +8°C° 0.2 mm 1 m/S 702 mmHg 91%

    Morgen, 26 Januar, Sonntag

    Zeit Temperatur Niederschläge Wind Luftdruck Luftfeuchtigkeit
    00:00 +7°C° 0.2 mm 1 m/S 702 mmHg 92%
    01:00 +7°C° 0.1 mm 1 m/S 702 mmHg 92%
    02:00 +6°C° 0.1 mm 0 m/S 702 mmHg 93%
    03:00 +6°C° 0.1 mm 0 m/S 702 mmHg 94%
    04:00 +6°C° 0.1 mm 0 m/S 702 mmHg 94%
    05:00 +7°C° 0.1 mm 1 m/S 702 mmHg 95%
    06:00 +7°C° 0.1 mm 1 m/S 703 mmHg 95%
    07:00 +7°C° 0.1 mm 1 m/S 703 mmHg 94%
    08:00 +8°C° 0.1 mm 1 m/S 704 mmHg 93%
    09:00 +8°C° 0.1 mm 1 m/S 705 mmHg 92%
    10:00 +8°C° 0.1 mm 2 m/S 705 mmHg 86%
    11:00 +9°C° 0.1 mm 2 m/S 705 mmHg 81%
    12:00 +9°C° 0.1 mm 2 m/S 705 mmHg 75%
    13:00 +9°C° 0 mm 3 m/S 705 mmHg 73%
    14:00 +10°C° 0 mm 3 m/S 705 mmHg 72%
    15:00 +10°C° 0 mm 3 m/S 705 mmHg 70%
    16:00 +9°C° 0 mm 2 m/S 705 mmHg 73%
    17:00 +8°C° 0 mm 2 m/S 705 mmHg 77%
    18:00 +8°C° 0 mm 1 m/S 705 mmHg 81%
    19:00 +7°C° 0 mm 1 m/S 705 mmHg 82%
    20:00 +7°C° 0 mm 1 m/S 706 mmHg 83%
    21:00 +6°C° 0 mm 1 m/S 706 mmHg 85%
    22:00 +6°C° 0 mm 1 m/S 706 mmHg 86%
    23:00 +5°C° 0 mm 1 m/S 706 mmHg 86%

    übermorgen, 27 Januar, Montag

    Zeit Temperatur Niederschläge Wind Luftdruck Luftfeuchtigkeit
    00:00 +5°C° 0 mm 1 m/S 706 mmHg 87%
    01:00 +4°C° 0 mm 0 m/S 706 mmHg 87%
    02:00 +3°C° 0 mm 0 m/S 706 mmHg 88%
    03:00 +3°C° 0 mm 0 m/S 705 mmHg 89%
    04:00 +3°C° 0 mm 0 m/S 705 mmHg 89%
    05:00 +3°C° 0 mm 0 m/S 705 mmHg 89%
    06:00 +3°C° 0 mm 0 m/S 705 mmHg 89%
    07:00 +4°C° 0 mm 0 m/S 705 mmHg 85%
    08:00 +5°C° 0 mm 0 m/S 706 mmHg 81%
    09:00 +6°C° 0 mm 0 m/S 706 mmHg 78%
    10:00 +7°C° 0 mm 0 m/S 706 mmHg 73%
    11:00 +9°C° 0 mm 1 m/S 706 mmHg 69%
    12:00 +11°C° 0 mm 1 m/S 706 mmHg 65%
    13:00 +10°C° 0 mm 2 m/S 706 mmHg 63%
    14:00 +12°C° 0 mm 2 m/S 706 mmHg 62%
    15:00 +12°C° 0 mm 3 m/S 705 mmHg 61%
    16:00 +10°C° 0 mm 3 m/S 705 mmHg 68%
    17:00 +9°C° 0 mm 2 m/S 705 mmHg 76%
    18:00 +7°C° 0 mm 2 m/S 705 mmHg 83%
    19:00 +7°C° 0 mm 2 m/S 705 mmHg 84%
    20:00 +8°C° 0 mm 1 m/S 705 mmHg 86%
    21:00 +7°C° 0 mm 1 m/S 705 mmHg 87%
    22:00 +7°C° 0 mm 1 m/S 705 mmHg 87%
    23:00 +7°C° 0 mm 1 m/S 705 mmHg 87%

    28 Januar, Dienstag

    Zeit Temperatur Niederschläge Wind Luftdruck Luftfeuchtigkeit
    00:00 +7°C° 0 mm 1 m/S 705 mmHg 87%
    01:00 +7°C° 0 mm 1 m/S 705 mmHg 86%
    02:00 +7°C° 0 mm 1 m/S 705 mmHg 86%
    03:00 +7°C° 0 mm 1 m/S 705 mmHg 86%
    04:00 +7°C° 0 mm 1 m/S 705 mmHg 86%
    05:00 +7°C° 0 mm 1 m/S 705 mmHg 86%
    06:00 +7°C° 0 mm 1 m/S 705 mmHg 86%
    07:00 +7°C° 0 mm 0 m/S 705 mmHg 85%
    08:00 +8°C° 0 mm 0 m/S 706 mmHg 83%
    09:00 +8°C° 0 mm 0 m/S 706 mmHg 81%
    10:00 +10°C° 0 mm 1 m/S 706 mmHg 79%
    11:00 +11°C° 0 mm 1 m/S 706 mmHg 76%
    12:00 +12°C° 0 mm 2 m/S 706 mmHg 74%
    13:00 +12°C° 0 mm 2 m/S 705 mmHg 73%
    14:00 +13°C° 0 mm 2 m/S 705 mmHg 73%
    15:00 +13°C° 0 mm 2 m/S 705 mmHg 72%
    16:00 +12°C° 0 mm 2 m/S 705 mmHg 77%
    17:00 +11°C° 0 mm 1 m/S 704 mmHg 81%
    18:00 +10°C° 0 mm 1 m/S 704 mmHg 86%
    19:00 +10°C° 0 mm 1 m/S 705 mmHg 87%
    20:00 +9°C° 0 mm 1 m/S 705 mmHg 87%
    21:00 +9°C° 0 mm 1 m/S 705 mmHg 88%
    22:00 +8°C° 0 mm 1 m/S 705 mmHg 88%
    23:00 +7°C° 0 mm 0 m/S 705 mmHg 89%

    29 Januar, Mittwoch

    Zeit Temperatur Niederschläge Wind Luftdruck Luftfeuchtigkeit
    00:00 +7°C° 0 mm 0 m/S 705 mmHg 89%
    01:00 +7°C° 0 mm 0 m/S 705 mmHg 90%
    02:00 +7°C° 0 mm 0 m/S 705 mmHg 90%
    03:00 +7°C° 0 mm 0 m/S 705 mmHg 90%
    04:00 +6°C° 0 mm 0 m/S 704 mmHg 91%
    05:00 +6°C° 0 mm 0 m/S 704 mmHg 92%
    06:00 +6°C° 0 mm 0 m/S 704 mmHg 92%
    07:00 +7°C° 0 mm 0 m/S 705 mmHg 89%
    08:00 +8°C° 0 mm 0 m/S 705 mmHg 87%
    09:00 +9°C° 0 mm 0 m/S 705 mmHg 84%
    10:00 +10°C° 0 mm 0 m/S 705 mmHg 80%
    11:00 +11°C° 0 mm 0 m/S 705 mmHg 75%
    12:00 +12°C° 0 mm 0 m/S 705 mmHg 71%
    13:00 +13°C° 0 mm 1 m/S 705 mmHg 70%
    14:00 +14°C° 0 mm 1 m/S 705 mmHg 69%
    15:00 +14°C° 0 mm 2 m/S 704 mmHg 68%
    16:00 +13°C° 0 mm 1 m/S 704 mmHg 75%
    17:00 +11°C° 0 mm 1 m/S 704 mmHg 82%
    18:00 +9°C° 0 mm 0 m/S 704 mmHg 89%
    19:00 +9°C° 0 mm 0 m/S 704 mmHg 89%
    20:00 +8°C° 0 mm 0 m/S 704 mmHg 90%
    21:00 +8°C° 0 mm 0 m/S 705 mmHg 90%
    22:00 +8°C° 0 mm 0 m/S 705 mmHg 88%
    23:00 +8°C° 0 mm 0 m/S 705 mmHg 86%

    30 Januar, Donnerstag

    Zeit Temperatur Niederschläge Wind Luftdruck Luftfeuchtigkeit
    00:00 +7°C° 0 mm 0 m/S 705 mmHg 85%
    01:00 +7°C° 0 mm 0 m/S 704 mmHg 83%
    02:00 +7°C° 0 mm 0 m/S 704 mmHg 82%
    03:00 +6°C° 0 mm 0 m/S 704 mmHg 81%
    04:00 +6°C° 0 mm 0 m/S 704 mmHg 78%
    05:00 +6°C° 0 mm 0 m/S 704 mmHg 76%
    06:00 +6°C° 0 mm 0 m/S 704 mmHg 73%
    07:00 +8°C° 0 mm 1 m/S 704 mmHg 70%
    08:00 +9°C° 0 mm 1 m/S 705 mmHg 67%
    09:00 +10°C° 0 mm 1 m/S 705 mmHg 64%
    10:00 +11°C° 0 mm 1 m/S 705 mmHg 57%
    11:00 +13°C° 0 mm 1 m/S 706 mmHg 50%
    12:00 +14°C° 0 mm 2 m/S 706 mmHg 44%
    13:00 +14°C° 0 mm 2 m/S 706 mmHg 44%
    14:00 +15°C° 0 mm 2 m/S 705 mmHg 43%
    15:00 +14°C° 0 mm 3 m/S 705 mmHg 43%
    16:00 +14°C° 0 mm 2 m/S 705 mmHg 50%
    17:00 +12°C° 0 mm 2 m/S 705 mmHg 56%
    18:00 +11°C° 0 mm 1 m/S 705 mmHg 62%
    19:00 +11°C° 0 mm 1 m/S 705 mmHg 63%
    20:00 +10°C° 0 mm 1 m/S 705 mmHg 65%
    21:00 +10°C° 0 mm 1 m/S 705 mmHg 66%
    22:00 +10°C° 0 mm 1 m/S 706 mmHg 65%
    23:00 +10°C° 0 mm 1 m/S 706 mmHg 65%
    Mehr zeigen